Home > Weather > Gütersloh > Past weeks

Flag for Germany Past Weather in Gütersloh, North Rhine-Westphalia, Germany — Yesterday and Last 2 Weeks

Now
66 °F

Passing clouds.


Feels Like: 66 °F
Forecast: 58 / 75 °F
Wind: 3 mph from West

Location: Paderborn / Lippstadt

Current Time: Jul 26, 2016 at 2:54:05 AM

Latest Report: Jul 26, 2016 at 2:20 AM


Visibility: N/A

Pressure: 30.12 "Hg

Humidity: 83%

Dew Point: 61 °F

Location of GüterslohLocation

Past Weather in Gütersloh — Graph

°F

Gütersloh Temperature Yesterday

Maximum temperature yesterday: 79 °F (at 3:20 PM)
Minimum temperature yesterday: 64 °F (at 5:20 AM)
Average temperature yesterday: 71 °F

High & Low Weather Summary for the Past Weeks

 TemperatureHumidityPressure
High91 °F (Jul 20, 5:20 PM)100% (Jul 14, 5:20 AM)30.27 "Hg (Jul 14, 5:20 AM)
Low50 °F (Jul 14, 6:50 AM)23% (Jul 20, 5:20 PM)29.77 "Hg (Jul 11, 1:20 AM)
Average67 °F69%30.06 "Hg
* Reported Jul 11 1:20 AM — Jul 26 1:20 AM, Gütersloh, Weather by CustomWeather, © 2016

Note: Actual official high and low records may vary slightly from our data, if they occured in-between our weather recording intervals... More about our weather records

Advertising

Gütersloh Weather History for the Previous 24 Hours

Scroll right to see more
 ConditionsComfort  
Time TempWeatherWind HumidityBarometerVisibility
1:20 AM
Tue, Jul 26
64 °FPassing clouds.3 mph88%30.12 "HgN/A
12:50 AM66 °FPassing clouds.2 mph83%30.12 "HgN/A
12:20 AM68 °FPassing clouds.2 mph83%30.12 "HgN/A
11:50 PM
Mon, Jul 25
68 °FScattered showers. Passing clouds.2 mph83%30.12 "HgN/A
11:20 PM70 °FSprinkles. Passing clouds.3 mph78%30.12 "HgN/A
10:50 PM68 °FPassing clouds.2 mph83%30.12 "HgN/A
10:20 PM70 °FPassing clouds.2 mph78%30.12 "HgN/A
9:50 PM70 °FSunny.3 mph73%30.09 "Hg10 mi
9:20 PM72 °FSunny.2 mph69%30.09 "Hg10 mi
8:50 PM73 °FPassing clouds.3 mph65%30.09 "HgN/A
8:20 PM73 °FSunny.7 mph65%30.09 "Hg10 mi
7:50 PM73 °FPassing clouds.6 mph65%30.09 "HgN/A
7:20 PM75 °FPassing clouds.7 mph61%30.09 "HgN/A
6:50 PM75 °FPassing clouds.8 mph57%30.09 "HgN/A
6:20 PM75 °FPassing clouds.8 mph57%30.09 "HgN/A
5:50 PM77 °FPassing clouds.7 mph54%30.07 "HgN/A
5:20 PM79 °FPassing clouds.10 mph51%30.07 "HgN/A
4:50 PM79 °FPassing clouds.7 mph48%30.07 "HgN/A
4:20 PM79 °FScattered clouds.8 mph51%30.07 "HgN/A
3:50 PM77 °FScattered clouds.7 mph54%30.07 "HgN/A
3:20 PM79 °FScattered clouds.6 mph51%30.07 "HgN/A
2:50 PM77 °FScattered clouds.6 mph51%30.07 "HgN/A
2:20 PM77 °FScattered clouds.7 mph54%30.09 "HgN/A
1:50 PM77 °FScattered clouds.6 mph54%30.09 "HgN/A
1:20 PM77 °FScattered clouds.8 mph54%30.09 "HgN/A
12:50 PM77 °FScattered clouds.7 mph57%30.09 "HgN/A
12:20 PM75 °FScattered clouds.6 mph61%30.09 "Hg4 mi
11:50 AM73 °FScattered clouds.6 mph69%30.09 "Hg4 mi
11:20 AM73 °FScattered clouds.5 mph69%30.09 "Hg4 mi
10:50 AM73 °FScattered clouds.6 mph69%30.09 "Hg4 mi
10:20 AM73 °FScattered clouds.6 mph69%30.09 "Hg4 mi
9:50 AM72 °FScattered clouds.7 mph73%30.09 "Hg4 mi
9:20 AM72 °FClear.6 mph73%30.09 "Hg5 mi
8:50 AM70 °FClear.6 mph78%30.09 "Hg5 mi
8:20 AM70 °FClear.6 mph78%30.09 "Hg4 mi
7:50 AM68 °FClear.6 mph83%30.09 "Hg4 mi
7:20 AM68 °FClear.5 mph78%30.09 "Hg4 mi
6:50 AM66 °FClear.5 mph88%30.07 "Hg5 mi
6:20 AM64 °FClear.5 mph88%30.07 "Hg10 mi
5:50 AM66 °FPassing clouds.3 mph83%30.07 "HgN/A
5:20 AM64 °FClear.5 mph88%30.07 "Hg10 mi
4:50 AM66 °FClear.2 mph83%30.07 "Hg10 mi
4:20 AM66 °FClear.2 mph83%30.07 "Hg10 mi
3:50 AM66 °FClear.2 mph83%30.09 "Hg10 mi
3:20 AM66 °FClear.3 mph83%30.07 "Hg10 mi
2:50 AM66 °FClear.1 mph83%30.09 "Hg10 mi
2:20 AM68 °FClear.2 mph78%30.09 "Hg10 mi
Weather by CustomWeather, © 2016

See weather overviewHow to use our weather pages